Time,TemperatureF,DewpointF,PressureIn,WindDirection,WindDirectionDegrees,WindSpeedMPH,WindSpeedGustMPH,Humidity,HourlyPrecipIn,Conditions,Clouds,dailyrainin,SolarRadiationWatts/m^2,SoftwareType,DateUTC
2013-03-01 00:05:00,32.5,27.9,29.93,NW,304,5.0,6.0,83,0.00,,,0.00,0,Wunderground v.1.15,2013-03-01 05:05:00,
2013-03-01 00:15:00,32.5,27.9,29.93,NW,319,3.0,3.0,83,0.00,,,0.00,0,Wunderground v.1.15,2013-03-01 05:15:00,
2013-03-01 00:25:00,32.5,27.9,29.92,NW,318,4.0,4.0,83,0.00,,,0.00,0,Wunderground v.1.15,2013-03-01 05:25:00,
2013-03-01 00:35:00,32.4,27.8,29.92,WNW,298,4.0,8.0,83,0.00,,,0.00,0,Wunderground v.1.15,2013-03-01 05:35:00,
2013-03-01 00:41:00,32.4,28.1,29.92,WNW,285,3.0,8.0,84,0.00,,,0.00,0,Wunderground v.1.15,2013-03-01 05:41:00,
2013-03-01 00:45:00,32.4,28.1,29.92,West,275,4.0,5.0,84,0.00,,,0.00,0,Wunderground v.1.15,2013-03-01 05:45:00,
2013-03-01 00:55:00,32.4,28.1,29.92,NW,312,5.0,5.0,84,0.00,,,0.00,0,Wunderground v.1.15,2013-03-01 05:55:00,
2013-03-01 01:05:00,32.4,28.1,29.92,WNW,296,4.0,6.0,84,0.00,,,0.00,0,Wunderground v.1.15,2013-03-01 06:05:00,
2013-03-01 01:15:00,32.2,27.9,29.92,NW,309,5.0,5.0,84,0.00,,,0.00,0,Wunderground v.1.15,2013-03-01 06:15:00,
2013-03-01 01:25:00,32.2,27.9,29.92,NW,323,5.0,5.0,84,0.00,,,0.00,0,Wunderground v.1.15,2013-03-01 06:25:00,
2013-03-01 01:35:00,32.2,27.9,29.92,NNW,335,4.0,4.0,84,0.00,,,0.00,0,Wunderground v.1.15,2013-03-01 06:35:00,
2013-03-01 01:45:00,32.1,28.1,29.92,NW,309,5.0,6.0,85,0.00,,,0.00,0,Wunderground v.1.15,2013-03-01 06:45:00,
2013-03-01 01:55:00,32.1,28.1,29.92,NW,322,5.0,7.0,85,0.00,,,0.00,0,Wunderground v.1.15,2013-03-01 06:55:00,
2013-03-01 02:05:00,31.9,27.9,29.92,NW,313,6.0,6.0,85,0.00,,,0.00,0,Wunderground v.1.15,2013-03-01 07:05:00,
2013-03-01 02:15:00,31.9,27.9,29.91,NW,306,5.0,6.0,85,0.00,,,0.00,0,Wunderground v.1.15,2013-03-01 07:15:00,
2013-03-01 02:25:00,31.9,27.9,29.91,NW,320,4.0,6.0,85,0.00,,,0.00,0,Wunderground v.1.15,2013-03-01 07:25:00,
2013-03-01 02:35:00,31.8,27.8,29.91,WNW,299,5.0,5.0,85,0.00,,,0.00,0,Wunderground v.1.15,2013-03-01 07:35:00,
2013-03-01 02:45:00,31.8,27.8,29.91,NNW,332,5.0,5.0,85,0.00,,,0.00,0,Wunderground v.1.15,2013-03-01 07:45:00,
2013-03-01 02:51:00,31.8,27.8,29.91,NW,319,5.0,5.0,85,0.00,,,0.00,0,Wunderground v.1.15,2013-03-01 07:51:00,
2013-03-01 02:55:00,31.6,27.6,29.91,WNW,301,5.0,5.0,85,0.00,,,0.00,0,Wunderground v.1.15,2013-03-01 07:55:00,
2013-03-01 03:05:00,31.6,27.6,29.91,NW,322,5.0,7.0,85,0.00,,,0.00,0,Wunderground v.1.15,2013-03-01 08:05:00,
2013-03-01 03:15:00,31.5,27.5,29.91,NW,311,6.0,6.0,85,0.00,,,0.00,0,Wunderground v.1.15,2013-03-01 08:15:00,
2013-03-01 03:25:00,31.5,27.2,29.91,NW,311,6.0,7.0,84,0.00,,,0.00,0,Wunderground v.1.15,2013-03-01 08:25:00,
2013-03-01 03:35:00,31.5,27.2,29.91,NW,316,6.0,6.0,84,0.00,,,0.00,0,Wunderground v.1.15,2013-03-01 08:35:00,
2013-03-01 03:41:00,31.5,27.2,29.90,NW,322,5.0,7.0,84,0.00,,,0.00,0,Wunderground v.1.15,2013-03-01 08:41:00,
2013-03-01 03:45:00,31.5,27.2,29.90,NNW,329,5.0,8.0,84,0.00,,,0.00,0,Wunderground v.1.15,2013-03-01 08:45:00,
2013-03-01 03:55:00,31.5,27.5,29.90,NW,305,5.0,7.0,85,0.00,,,0.00,0,Wunderground v.1.15,2013-03-01 08:55:00,
2013-03-01 04:01:00,31.3,27.3,29.90,NW,304,5.0,5.0,85,0.00,,,0.00,0,Wunderground v.1.15,2013-03-01 09:01:00,
2013-03-01 04:05:00,31.3,27.3,29.90,NW,318,5.0,5.0,85,0.00,,,0.00,0,Wunderground v.1.15,2013-03-01 09:05:00,
2013-03-01 04:15:00,31.3,27.3,29.90,NW,312,4.0,5.0,85,0.00,,,0.00,0,Wunderground v.1.15,2013-03-01 09:15:00,
2013-03-01 04:25:00,31.2,27.5,29.90,NNW,328,5.0,5.0,86,0.00,,,0.00,0,Wunderground v.1.15,2013-03-01 09:25:00,
2013-03-01 04:35:00,31.2,27.5,29.90,NW,323,5.0,5.0,86,0.00,,,0.00,0,Wunderground v.1.15,2013-03-01 09:35:00,
2013-03-01 04:45:00,31.2,27.5,29.91,NNW,329,3.0,6.0,86,0.00,,,0.00,0,Wunderground v.1.15,2013-03-01 09:45:00,
2013-03-01 04:55:00,31.2,27.5,29.91,NW,326,5.0,5.0,86,0.00,,,0.00,0,Wunderground v.1.15,2013-03-01 09:55:00,
2013-03-01 05:05:00,31.2,27.5,29.91,NW,315,5.0,5.0,86,0.00,,,0.00,0,Wunderground v.1.15,2013-03-01 10:05:00,
2013-03-01 05:15:00,31.0,27.3,29.91,NW,322,4.0,7.0,86,0.00,,,0.00,0,Wunderground v.1.15,2013-03-01 10:15:00,
2013-03-01 05:21:00,31.0,27.6,29.91,NW,322,5.0,7.0,87,0.00,,,0.00,0,Wunderground v.1.15,2013-03-01 10:21:00,
2013-03-01 05:25:00,30.9,27.5,29.91,NNW,335,6.0,8.0,87,0.00,,,0.00,0,Wunderground v.1.15,2013-03-01 10:25:00,
2013-03-01 05:35:00,30.9,27.5,29.91,NNW,328,6.0,6.0,87,0.00,,,0.00,0,Wunderground v.1.15,2013-03-01 10:35:00,
2013-03-01 05:45:00,30.9,27.8,29.92,NW,320,5.0,5.0,88,0.00,,,0.00,0,Wunderground v.1.15,2013-03-01 10:45:00,
2013-03-01 05:51:00,30.9,27.8,29.92,North,352,5.0,5.0,88,0.00,,,0.00,0,Wunderground v.1.15,2013-03-01 10:51:00,
2013-03-01 05:55:00,30.9,27.8,29.92,WNW,301,4.0,6.0,88,0.00,,,0.00,0,Wunderground v.1.15,2013-03-01 10:55:00,
2013-03-01 06:05:00,30.9,27.8,29.92,WNW,302,4.0,4.0,88,0.00,,,0.00,0,Wunderground v.1.15,2013-03-01 11:05:00,
2013-03-01 06:15:00,30.7,27.8,29.92,NW,312,4.0,6.0,89,0.00,,,0.00,0,Wunderground v.1.15,2013-03-01 11:15:00,
2013-03-01 06:25:00,30.6,27.7,29.93,WNW,301,5.0,5.0,89,0.00,,,0.00,0,Wunderground v.1.15,2013-03-01 11:25:00,
2013-03-01 06:31:00,30.6,27.7,29.93,NW,316,4.0,7.0,89,0.00,,,0.00,0,Wunderground v.1.15,2013-03-01 11:31:00,
2013-03-01 06:35:00,30.4,27.5,29.93,NW,306,5.0,5.0,89,0.00,,,0.00,0,Wunderground v.1.15,2013-03-01 11:35:00,
2013-03-01 06:45:00,30.4,27.8,29.92,NW,308,4.0,6.0,90,0.00,,,0.00,0,Wunderground v.1.15,2013-03-01 11:45:00,
2013-03-01 06:55:00,30.3,27.7,29.92,NW,306,4.0,4.0,90,0.00,,,0.00,0,Wunderground v.1.15,2013-03-01 11:55:00,
2013-03-01 07:05:00,30.3,27.7,29.92,NW,315,4.0,4.0,90,0.00,,,0.00,0,Wunderground v.1.15,2013-03-01 12:05:00,
2013-03-01 07:15:00,30.3,28.0,29.93,WNW,302,4.0,7.0,91,0.00,,,0.00,0,Wunderground v.1.15,2013-03-01 12:15:00,
2013-03-01 07:25:00,30.3,28.0,29.93,NW,308,3.0,3.0,91,0.00,,,0.00,0,Wunderground v.1.15,2013-03-01 12:25:00,
2013-03-01 07:31:00,30.3,28.0,29.93,WNW,302,3.0,3.0,91,0.00,,,0.00,5,Wunderground v.1.15,2013-03-01 12:31:00,
2013-03-01 07:35:00,30.3,28.0,29.93,NW,304,3.0,3.0,91,0.00,,,0.00,7,Wunderground v.1.15,2013-03-01 12:35:00,
2013-03-01 07:45:00,30.3,28.0,29.93,WNW,302,3.0,5.0,91,0.00,,,0.00,11,Wunderground v.1.15,2013-03-01 12:45:00,
2013-03-01 07:55:00,30.3,28.0,29.94,WNW,292,4.0,4.0,91,0.00,,,0.00,14,Wunderground v.1.15,2013-03-01 12:55:00,
2013-03-01 08:01:00,30.3,28.3,29.94,WNW,296,4.0,4.0,92,0.00,,,0.00,16,Wunderground v.1.15,2013-03-01 13:01:00,
2013-03-01 08:15:00,30.4,28.4,29.94,NW,305,4.0,4.0,92,0.00,,,0.00,28,Wunderground v.1.15,2013-03-01 13:15:00,
2013-03-01 08:21:00,30.4,28.4,29.94,NW,319,4.0,4.0,92,0.00,,,0.00,30,Wunderground v.1.15,2013-03-01 13:21:00,
2013-03-01 08:25:00,30.4,28.4,29.94,NW,306,3.0,3.0,92,0.00,,,0.00,33,Wunderground v.1.15,2013-03-01 13:25:00,
2013-03-01 08:35:00,30.4,28.4,29.94,WNW,299,4.0,5.0,92,0.00,,,0.00,44,Wunderground v.1.15,2013-03-01 13:35:00,
2013-03-01 08:45:00,30.6,28.6,29.95,WNW,294,5.0,7.0,92,0.00,,,0.00,53,Wunderground v.1.15,2013-03-01 13:45:00,
2013-03-01 08:55:00,30.6,28.6,29.95,WNW,295,5.0,6.0,92,0.00,,,0.00,55,Wunderground v.1.15,2013-03-01 13:55:00,
2013-03-01 09:05:00,30.7,28.7,29.95,WNW,302,4.0,4.0,92,0.00,,,0.00,90,Wunderground v.1.15,2013-03-01 14:05:00,
2013-03-01 09:11:00,30.7,28.7,29.95,NW,305,3.0,4.0,92,0.00,,,0.00,93,Wunderground v.1.15,2013-03-01 14:11:00,
2013-03-01 09:15:00,30.7,28.7,29.95,NW,305,3.0,4.0,92,0.00,,,0.00,81,Wunderground v.1.15,2013-03-01 14:15:00,
2013-03-01 09:25:00,30.9,28.9,29.95,NW,304,4.0,5.0,92,0.00,,,0.00,74,Wunderground v.1.15,2013-03-01 14:25:00,
2013-03-01 09:35:00,30.7,28.7,29.95,NW,308,5.0,5.0,92,0.00,,,0.00,118,Wunderground v.1.15,2013-03-01 14:35:00,
2013-03-01 09:45:00,30.9,28.9,29.95,NW,313,4.0,7.0,92,0.00,,,0.00,91,Wunderground v.1.15,2013-03-01 14:45:00,
2013-03-01 09:55:00,30.9,28.9,29.95,NW,320,4.0,4.0,92,0.00,,,0.00,118,Wunderground v.1.15,2013-03-01 14:55:00,
2013-03-01 10:01:00,31.0,28.9,29.95,NNW,342,4.0,4.0,92,0.00,,,0.00,113,Wunderground v.1.15,2013-03-01 15:01:00,
2013-03-01 10:05:00,31.2,29.1,29.95,NW,309,4.0,4.0,92,0.00,,,0.00,135,Wunderground v.1.15,2013-03-01 15:05:00,
2013-03-01 10:15:00,31.0,28.9,29.95,WNW,301,5.0,5.0,92,0.00,,,0.00,157,Wunderground v.1.15,2013-03-01 15:15:00,
2013-03-01 10:21:00,31.2,29.1,29.95,NNW,336,5.0,5.0,92,0.00,,,0.00,172,Wunderground v.1.15,2013-03-01 15:21:00,
2013-03-01 10:35:00,31.5,29.4,29.95,NW,311,5.0,5.0,92,0.00,,,0.00,167,Wunderground v.1.15,2013-03-01 15:35:00,
2013-03-01 10:45:00,31.6,29.5,29.96,NNW,335,4.0,4.0,92,0.00,,,0.00,120,Wunderground v.1.15,2013-03-01 15:45:00,
2013-03-01 10:55:00,31.6,29.5,29.96,NW,316,4.0,4.0,92,0.00,,,0.00,113,Wunderground v.1.15,2013-03-01 15:55:00,
2013-03-01 11:05:00,31.8,29.7,29.96,WNW,302,3.0,4.0,92,0.00,,,0.00,109,Wunderground v.1.15,2013-03-01 16:05:00,
2013-03-01 11:15:00,31.8,29.7,29.96,NW,315,4.0,4.0,92,0.00,,,0.00,111,Wunderground v.1.15,2013-03-01 16:15:00,
2013-03-01 11:21:00,31.9,29.8,29.96,NW,309,4.0,5.0,92,0.00,,,0.00,125,Wunderground v.1.15,2013-03-01 16:21:00,
2013-03-01 11:25:00,31.9,29.8,29.96,NW,313,4.0,4.0,92,0.00,,,0.00,118,Wunderground v.1.15,2013-03-01 16:25:00,
2013-03-01 11:35:00,32.2,30.1,29.96,NW,315,3.0,6.0,92,0.00,,,0.00,111,Wunderground v.1.15,2013-03-01 16:35:00,
2013-03-01 11:45:00,32.2,29.9,29.96,NW,319,4.0,4.0,91,0.00,,,0.00,109,Wunderground v.1.15,2013-03-01 16:45:00,
2013-03-01 11:55:00,32.4,30.1,29.96,NW,323,4.0,4.0,91,0.00,,,0.00,125,Wunderground v.1.15,2013-03-01 16:55:00,
2013-03-01 12:05:00,32.5,30.2,29.96,NW,309,3.0,3.0,91,0.00,,,0.00,157,Wunderground v.1.15,2013-03-01 17:05:00,
2013-03-01 12:15:00,32.7,30.4,29.96,NW,316,3.0,6.0,91,0.00,,,0.00,195,Wunderground v.1.15,2013-03-01 17:15:00,
2013-03-01 12:25:00,32.8,30.7,29.96,NNW,330,4.0,6.0,92,0.00,,,0.00,204,Wunderground v.1.15,2013-03-01 17:25:00,
2013-03-01 12:31:00,32.8,30.7,29.96,NW,304,3.0,6.0,92,0.00,,,0.00,151,Wunderground v.1.15,2013-03-01 17:31:00,
2013-03-01 12:35:00,32.9,30.8,29.96,NW,322,3.0,3.0,92,0.00,,,0.00,144,Wunderground v.1.15,2013-03-01 17:35:00,
2013-03-01 12:45:00,32.9,30.8,29.96,NW,322,3.0,3.0,92,0.00,,,0.00,60,Wunderground v.1.15,2013-03-01 17:45:00,
2013-03-01 12:55:00,32.5,30.4,29.96,NNE,20,3.0,3.0,92,0.00,,,0.00,120,Wunderground v.1.15,2013-03-01 17:55:00,
2013-03-01 13:01:00,32.5,30.4,29.96,NE,52,2.0,3.0,92,0.00,,,0.00,107,Wunderground v.1.15,2013-03-01 18:01:00,
2013-03-01 13:05:00,32.7,30.6,29.96,NE,52,2.0,3.0,92,0.00,,,0.00,116,Wunderground v.1.15,2013-03-01 18:05:00,
2013-03-01 13:15:00,32.9,30.8,29.96,NNE,27,2.0,2.0,92,0.00,,,0.00,143,Wunderground v.1.15,2013-03-01 18:15:00,
2013-03-01 13:25:00,32.9,30.6,29.96,North,7,3.0,3.0,91,0.00,,,0.00,181,Wunderground v.1.15,2013-03-01 18:25:00,
2013-03-01 13:35:00,33.2,30.9,29.96,NNE,16,3.0,6.0,91,0.00,,,0.00,162,Wunderground v.1.15,2013-03-01 18:35:00,
2013-03-01 13:45:00,33.5,30.9,29.95,NNE,25,3.0,6.0,90,0.00,,,0.00,132,Wunderground v.1.15,2013-03-01 18:45:00,
2013-03-01 13:55:00,33.1,30.2,29.95,NE,38,5.0,5.0,89,0.00,,,0.00,146,Wunderground v.1.15,2013-03-01 18:55:00,
2013-03-01 14:05:00,33.1,30.2,29.95,NE,45,4.0,4.0,89,0.00,,,0.00,162,Wunderground v.1.15,2013-03-01 19:05:00,
2013-03-01 14:11:00,33.2,30.3,29.94,NNE,25,3.0,4.0,89,0.00,,,0.00,157,Wunderground v.1.15,2013-03-01 19:11:00,
2013-03-01 14:15:00,33.4,30.5,29.94,NNE,27,3.0,3.0,89,0.00,,,0.00,143,Wunderground v.1.15,2013-03-01 19:15:00,
2013-03-01 14:25:00,33.4,30.2,29.94,North,0,4.0,7.0,88,0.00,,,0.00,153,Wunderground v.1.15,2013-03-01 19:25:00,
2013-03-01 14:35:00,33.2,30.0,29.94,North,8,4.0,5.0,88,0.00,,,0.00,150,Wunderground v.1.15,2013-03-01 19:35:00,
2013-03-01 14:45:00,32.9,29.7,29.94,North,10,5.0,5.0,88,0.00,,,0.00,102,Wunderground v.1.15,2013-03-01 19:45:00,
2013-03-01 14:55:00,32.8,29.6,29.94,NNE,28,5.0,7.0,88,0.00,,,0.00,106,Wunderground v.1.15,2013-03-01 19:55:00,
2013-03-01 15:05:00,32.9,29.5,29.94,NE,35,4.0,5.0,87,0.00,,,0.00,74,Wunderground v.1.15,2013-03-01 20:05:00,
2013-03-01 15:15:00,33.1,29.7,29.94,North,0,4.0,4.0,87,0.00,,,0.00,109,Wunderground v.1.15,2013-03-01 20:15:00,
2013-03-01 15:25:00,32.9,29.2,29.95,NNE,27,4.0,4.0,86,0.00,,,0.00,93,Wunderground v.1.15,2013-03-01 20:25:00,
2013-03-01 15:35:00,32.9,28.9,29.95,NNE,18,4.0,4.0,85,0.00,,,0.00,84,Wunderground v.1.15,2013-03-01 20:35:00,
2013-03-01 15:45:00,32.8,28.8,29.95,NE,37,5.0,5.0,85,0.00,,,0.00,83,Wunderground v.1.15,2013-03-01 20:45:00,
2013-03-01 15:55:00,32.7,28.4,29.95,NE,44,4.0,8.0,84,0.00,,,0.00,49,Wunderground v.1.15,2013-03-01 20:55:00,
2013-03-01 16:05:00,32.7,28.4,29.95,NNE,24,4.0,4.0,84,0.00,,,0.00,69,Wunderground v.1.15,2013-03-01 21:05:00,
2013-03-01 16:15:00,32.7,28.4,29.95,NE,45,3.0,3.0,84,0.00,,,0.00,56,Wunderground v.1.15,2013-03-01 21:15:00,
2013-03-01 16:21:00,32.7,28.1,29.95,North,3,4.0,5.0,83,0.00,,,0.00,69,Wunderground v.1.15,2013-03-01 21:21:00,
2013-03-01 16:25:00,32.8,27.9,29.95,North,0,4.0,4.0,82,0.00,,,0.00,84,Wunderground v.1.15,2013-03-01 21:25:00,
2013-03-01 16:35:00,33.1,27.6,29.95,North,0,4.0,4.0,80,0.00,,,0.00,51,Wunderground v.1.15,2013-03-01 21:35:00,
2013-03-01 16:45:00,33.1,27.6,29.95,NE,42,3.0,3.0,80,0.00,,,0.00,35,Wunderground v.1.15,2013-03-01 21:45:00,
2013-03-01 16:51:00,32.9,27.4,29.96,NNE,23,2.0,3.0,80,0.00,,,0.00,32,Wunderground v.1.15,2013-03-01 21:51:00,
2013-03-01 16:55:00,32.8,27.3,29.96,NNE,32,2.0,2.0,80,0.00,,,0.00,33,Wunderground v.1.15,2013-03-01 21:55:00,
2013-03-01 17:05:00,32.8,27.3,29.96,NE,45,3.0,4.0,80,0.00,,,0.00,48,Wunderground v.1.15,2013-03-01 22:05:00,
2013-03-01 17:15:00,32.8,27.3,29.96,NE,44,3.0,5.0,80,0.00,,,0.00,30,Wunderground v.1.15,2013-03-01 22:15:00,
2013-03-01 17:25:00,32.7,27.2,29.97,North,7,4.0,4.0,80,0.00,,,0.00,23,Wunderground v.1.15,2013-03-01 22:25:00,
2013-03-01 17:35:00,32.5,26.7,29.97,NNE,16,4.0,7.0,79,0.00,,,0.00,23,Wunderground v.1.15,2013-03-01 22:35:00,
2013-03-01 17:45:00,32.4,26.6,29.97,NNE,17,3.0,3.0,79,0.00,,,0.00,18,Wunderground v.1.15,2013-03-01 22:45:00,
2013-03-01 17:55:00,32.4,26.6,29.98,North,359,5.0,5.0,79,0.00,,,0.00,18,Wunderground v.1.15,2013-03-01 22:55:00,
2013-03-01 18:05:00,32.2,26.4,29.98,NNE,24,4.0,6.0,79,0.00,,,0.00,9,Wunderground v.1.15,2013-03-01 23:05:00,
2013-03-01 18:15:00,32.1,26.3,29.98,North,1,4.0,4.0,79,0.00,,,0.00,5,Wunderground v.1.15,2013-03-01 23:15:00,
2013-03-01 18:25:00,31.9,26.4,29.98,NNE,13,3.0,6.0,80,0.00,,,0.00,5,Wunderground v.1.15,2013-03-01 23:25:00,
2013-03-01 18:35:00,31.8,26.0,29.98,North,0,3.0,3.0,79,0.00,,,0.00,0,Wunderground v.1.15,2013-03-01 23:35:00,
2013-03-01 18:45:00,31.8,26.0,29.99,NNE,20,3.0,3.0,79,0.00,,,0.00,0,Wunderground v.1.15,2013-03-01 23:45:00,
2013-03-01 18:55:00,31.8,26.3,29.99,NE,37,3.0,3.0,80,0.00,,,0.00,0,Wunderground v.1.15,2013-03-01 23:55:00,
2013-03-01 19:05:00,31.6,26.1,29.99,North,7,3.0,3.0,80,0.00,,,0.00,0,Wunderground v.1.15,2013-03-02 00:05:00,
2013-03-01 19:15:00,31.6,26.1,29.99,NNE,21,3.0,3.0,80,0.00,,,0.00,0,Wunderground v.1.15,2013-03-02 00:15:00,
2013-03-01 19:25:00,31.6,26.1,30.00,NNE,32,2.0,2.0,80,0.00,,,0.00,0,Wunderground v.1.15,2013-03-02 00:25:00,
2013-03-01 19:35:00,31.6,26.1,30.00,North,0,2.0,2.0,80,0.00,,,0.00,0,Wunderground v.1.15,2013-03-02 00:35:00,
2013-03-01 19:45:00,31.5,26.0,30.00,North,3,3.0,3.0,80,0.00,,,0.00,0,Wunderground v.1.15,2013-03-02 00:45:00,
2013-03-01 19:55:00,31.5,26.0,30.00,NNE,31,2.0,3.0,80,0.00,,,0.00,0,Wunderground v.1.15,2013-03-02 00:55:00,
2013-03-01 20:05:00,31.5,26.0,30.00,NNE,16,2.0,2.0,80,0.00,,,0.00,0,Wunderground v.1.15,2013-03-02 01:05:00,
2013-03-01 20:15:00,31.5,26.3,30.00,NNE,18,2.0,2.0,81,0.00,,,0.00,0,Wunderground v.1.15,2013-03-02 01:15:00,
2013-03-01 20:25:00,31.3,26.1,30.00,North,359,2.0,3.0,81,0.00,,,0.00,0,Wunderground v.1.15,2013-03-02 01:25:00,
2013-03-01 20:35:00,31.3,26.1,30.00,North,359,2.0,2.0,81,0.00,,,0.00,0,Wunderground v.1.15,2013-03-02 01:35:00,
2013-03-01 20:45:00,31.2,25.7,30.00,NNW,339,2.0,2.0,80,0.00,,,0.00,0,Wunderground v.1.15,2013-03-02 01:45:00,
2013-03-01 20:55:00,31.2,25.7,30.01,North,8,3.0,3.0,80,0.00,,,0.00,0,Wunderground v.1.15,2013-03-02 01:55:00,
2013-03-01 21:05:00,31.2,25.7,30.01,NNE,13,3.0,3.0,80,0.00,,,0.00,0,Wunderground v.1.15,2013-03-02 02:05:00,
2013-03-01 21:15:00,30.9,25.5,30.01,North,4,3.0,3.0,80,0.00,,,0.00,0,Wunderground v.1.15,2013-03-02 02:15:00,
2013-03-01 21:25:00,30.7,25.3,30.01,North,7,2.0,3.0,80,0.00,,,0.00,0,Wunderground v.1.15,2013-03-02 02:25:00,
2013-03-01 21:35:00,30.7,25.6,30.01,North,0,2.0,4.0,81,0.00,,,0.00,0,Wunderground v.1.15,2013-03-02 02:35:00,
2013-03-01 21:45:00,30.4,25.0,30.01,North,8,3.0,6.0,80,0.00,,,0.00,0,Wunderground v.1.15,2013-03-02 02:45:00,
2013-03-01 21:55:00,30.3,24.9,30.02,NNE,18,3.0,3.0,80,0.00,,,0.00,0,Wunderground v.1.15,2013-03-02 02:55:00,
2013-03-01 22:05:00,30.3,24.9,30.02,NE,34,3.0,5.0,80,0.00,,,0.00,0,Wunderground v.1.15,2013-03-02 03:05:00,
2013-03-01 22:15:00,30.1,24.7,30.02,NNE,20,4.0,4.0,80,0.00,,,0.00,0,Wunderground v.1.15,2013-03-02 03:15:00,
2013-03-01 22:25:00,30.0,24.9,30.02,NNE,31,3.0,3.0,81,0.00,,,0.00,0,Wunderground v.1.15,2013-03-02 03:25:00,
2013-03-01 22:35:00,29.8,24.1,30.02,North,0,3.0,3.0,79,0.00,,,0.00,0,Wunderground v.1.15,2013-03-02 03:35:00,
2013-03-01 22:45:00,29.7,24.3,30.02,North,0,2.0,2.0,80,0.00,,,0.00,0,Wunderground v.1.15,2013-03-02 03:45:00,
2013-03-01 22:55:00,29.5,23.8,30.02,North,0,3.0,3.0,79,0.00,,,0.00,0,Wunderground v.1.15,2013-03-02 03:55:00,
2013-03-01 23:05:00,29.5,24.1,30.02,North,0,2.0,3.0,80,0.00,,,0.00,0,Wunderground v.1.15,2013-03-02 04:05:00,
2013-03-01 23:15:00,29.4,24.0,30.02,North,0,2.0,5.0,80,0.00,,,0.00,0,Wunderground v.1.15,2013-03-02 04:15:00,
2013-03-01 23:25:00,29.4,23.7,30.02,North,0,2.0,3.0,79,0.00,,,0.00,0,Wunderground v.1.15,2013-03-02 04:25:00,
2013-03-01 23:35:00,29.4,23.7,30.02,NNE,20,2.0,3.0,79,0.00,,,0.00,0,Wunderground v.1.15,2013-03-02 04:35:00,
2013-03-01 23:45:00,29.3,23.6,30.02,NNE,21,2.0,2.0,79,0.00,,,0.00,0,Wunderground v.1.15,2013-03-02 04:45:00,
2013-03-01 23:55:00,29.3,23.9,30.02,NNE,23,1.0,3.0,80,0.00,,,0.00,0,Wunderground v.1.15,2013-03-02 04:55:00,